| time (UTC) | temp C | wind direction | speed KPH | gust KPH | rain 1hr cm | rain 24hr cm | rain mn cm | humidity % | barometer mb |
| 20260503003146 | 17 | 346 | 0.0 | 0.0 | 0.00 | 4.27 | 2.54 | 54 | 1014.2 |
| 20260503000146 | 18 | 345 | 0.0 | 0.0 | 0.00 | 4.83 | 2.54 | 51 | 1013.6 |
| 20260502234646 | 19 | 33 | 0.0 | 4.8 | 0.00 | 5.59 | 2.54 | 53 | 1013.2 |
| 20260502233146 | 20 | 319 | 8.0 | 8.0 | 0.00 | 5.82 | 2.54 | 51 | 1012.9 |
| 20260502231645 | 20 | 319 | 4.8 | 17.7 | 0.00 | 5.87 | 2.54 | 48 | 1012.8 |
| 20260502224645 | 21 | 349 | 0.0 | 8.0 | 0.00 | 5.94 | 2.54 | 51 | 1012.8 |
| 20260502223145 | 21 | 297 | 4.8 | 9.7 | 0.00 | 5.94 | 2.54 | 53 | 1012.6 |
| 20260502221645 | 21 | 276 | 8.0 | 8.0 | 0.00 | 5.94 | 2.54 | 51 | 1012.5 |
| 20260502214644 | 22 | 360 | 0.0 | 0.0 | 0.00 | 5.97 | 2.54 | 54 | 1012.1 |
| 20260502213144 | 21 | 6 | 4.8 | 8.0 | 0.00 | 5.97 | 2.54 | 55 | 1012.1 |
| 20260502211645 | 22 | 344 | 8.0 | 9.7 | 0.00 | 5.97 | 2.54 | 54 | 1012.1 |
| 20260502210144 | 22 | 82 | 9.7 | 9.7 | 0.00 | 5.97 | 2.54 | 56 | 1012.1 |
| 20260502203144 | 22 | 323 | 4.8 | 8.0 | 0.00 | 5.97 | 2.54 | 60 | 1012.1 |
| 20260502201643 | 21 | 247 | 3.2 | 4.8 | 0.00 | 5.97 | 2.54 | 61 | 1012.3 |
| 20260502200144 | 22 | 283 | 0.0 | 8.0 | 0.00 | 5.97 | 2.54 | 58 | 1012.4 |
| 20260502194643 | 22 | 343 | 8.0 | 12.9 | 0.00 | 5.97 | 2.54 | 60 | 1012.5 |
| 20260502193143 | 21 | 358 | 3.2 | 8.0 | 0.00 | 5.97 | 2.54 | 61 | 1012.7 |
| 20260502191643 | 21 | 352 | 9.7 | 9.7 | 0.00 | 5.99 | 2.54 | 62 | 1012.8 |
| 20260502190142 | 20 | 348 | 4.8 | 4.8 | 0.00 | 5.99 | 2.54 | 63 | 1013.1 |
| 20260502184642 | 21 | 153 | 0.0 | 4.8 | 0.00 | 5.99 | 2.54 | 65 | 1013.1 |
| 20260502183142 | 21 | 291 | 3.2 | 4.8 | 0.00 | 5.99 | 2.54 | 63 | 1012.9 |
| 20260502181642 | 21 | 347 | 4.8 | 9.7 | 0.00 | 5.99 | 2.54 | 63 | 1012.9 |
| 20260502180141 | 20 | 330 | 0.0 | 4.8 | 0.00 | 5.99 | 2.54 | 67 | 1013.0 |
| 20260502170140 | 18 | 10 | 4.8 | 8.0 | 0.03 | 5.99 | 2.54 | 75 | 1012.9 |
| 20260502163139 | 18 | 356 | 3.2 | 4.8 | 0.00 | 5.97 | 2.51 | 82 | 1013.1 |
| 20260502161639 | 17 | 351 | 4.8 | 4.8 | 0.00 | 5.97 | 2.51 | 86 | 1013.2 |
| 20260502160139 | 17 | 93 | 0.0 | 8.0 | 0.00 | 5.97 | 2.51 | 87 | 1013.3 |
| 20260502151638 | 13 | 332 | 3.2 | 4.8 | 0.00 | 5.97 | 2.51 | 96 | 1013.0 |
| 20260502150138 | 13 | 290 | 0.0 | 0.0 | 0.00 | 5.97 | 2.51 | 95 | 1012.9 |
| 20260502130135 | 11 | 21 | 9.7 | 9.7 | 0.00 | 5.99 | 2.51 | 95 | 1011.9 |
| 20260502123135 | 11 | 354 | 0.0 | 0.0 | 0.08 | 6.02 | 2.51 | 95 | 1011.4 |
| 20260502121635 | 11 | 330 | 0.0 | 0.0 | 0.20 | 6.02 | 2.51 | 95 | 1011.2 |
| 20260502120204 | 11 | 6 | 3.2 | 8.0 | 0.20 | 6.02 | 2.51 | 95 | 1011.2 |
| 20260502113204 | 11 | 335 | 0.0 | 8.0 | 0.13 | 5.94 | 2.44 | 95 | 1010.8 |
| 20260502111704 | 11 | 15 | 0.0 | 3.2 | 0.23 | 5.82 | 2.31 | 95 | 1011.2 |
| 20260502110203 | 11 | 15 | 0.0 | 4.8 | 0.36 | 5.82 | 2.31 | 95 | 1010.5 |
| 20260502104706 | 11 | 109 | 3.2 | 4.8 | 0.38 | 5.82 | 2.31 | 95 | 1010.6 |
| 20260502101703 | 12 | 1 | 0.0 | 0.0 | 0.18 | 5.59 | 2.08 | 95 | 1011.6 |
| 20260502090202 | 12 | 16 | 3.2 | 4.8 | 0.58 | 5.36 | 1.85 | 95 | 1009.5 |
| 20260502070200 | 12 | 103 | 0.0 | 0.0 | 0.66 | 4.24 | 0.74 | 95 | 1009.4 |
| 20260502064659 | 12 | 264 | 0.0 | 0.0 | 0.53 | 4.04 | 0.53 | 95 | 1010.4 |
| 20260502063159 | 12 | 108 | 0.0 | 0.0 | 0.36 | 3.86 | 0.36 | 95 | 1010.8 |
| 20260502060159 | 12 | 267 | 3.2 | 3.2 | 0.08 | 3.58 | 0.08 | 95 | 1010.3 |
| 20260502054658 | 12 | 348 | 3.2 | 8.0 | 0.00 | 3.51 | 0.00 | 95 | 1010.9 |
| 20260502053158 | 12 | 4 | 0.0 | 0.0 | 0.00 | 3.51 | 0.00 | 95 | 1010.9 |
| 20260502050157 | 12 | 266 | 0.0 | 0.0 | 0.10 | 3.51 | 0.00 | 95 | 1011.1 |
| 20260502043156 | 12 | 331 | 3.2 | 4.8 | 0.20 | 3.51 | 3.51 | 95 | 1011.2 |
| 20260502040156 | 12 | 159 | 0.0 | 0.0 | 0.18 | 3.40 | 3.40 | 95 | 1011.9 |
| 20260502033155 | 12 | 64 | 0.0 | 3.2 | 0.69 | 3.30 | 3.30 | 95 | 1012.2 |
| 20260502031656 | 12 | 353 | 0.0 | 3.2 | 0.74 | 3.28 | 3.28 | 95 | 1012.7 |
| 20260502030155 | 12 | 34 | 0.0 | 3.2 | 0.76 | 3.23 | 3.23 | 95 | 1013.1 |
| 20260502024655 | 12 | 353 | 0.0 | 0.0 | 0.53 | 3.00 | 3.00 | 95 | 1012.4 |
| 20260502023155 | 12 | 230 | 0.0 | 0.0 | 0.23 | 2.62 | 2.62 | 95 | 1012.0 |
| 20260502021654 | 12 | 335 | 0.0 | 3.2 | 0.23 | 2.54 | 2.54 | 95 | 1011.0 |
| 20260502020154 | 12 | 22 | 3.2 | 9.7 | 0.18 | 2.46 | 2.46 | 95 | 1010.6 |
| 20260502014654 | 12 | 349 | 4.8 | 8.0 | 0.36 | 2.46 | 2.46 | 95 | 1011.0 |
| 20260502013153 | 13 | 24 | 0.0 | 3.2 | 0.61 | 2.39 | 2.39 | 95 | 1011.5 |
| 20260502011653 | 13 | 214 | 0.0 | 3.2 | 0.71 | 2.31 | 2.31 | 95 | 1010.9 |
| 20260502010153 | 13 | 346 | 0.0 | 0.0 | 1.07 | 2.29 | 2.29 | 95 | 1011.7 |
| 20260502004653 | 13 | 210 | 0.0 | 3.2 | 1.65 | 2.11 | 2.11 | 95 | 1011.7 |